Date,TemperatureHighF,TemperatureAvgF,TemperatureLowF,DewpointHighF,DewpointAvgF,DewpointLowF,HumidityHigh,HumidityAvg,HumidityLow,PressureMaxIn,PressureMinIn,WindSpeedMaxMPH,WindSpeedAvgMPH,GustSpeedMaxMPH,PrecipitationSumIn
2013-1-1,43,34,28,39,32,27,99,95,78,30.52,30.38,3,0,4,0.08
2013-1-2,44,31,24,37,29,23,98,92,67,30.40,30.26,2,0,5,0.01
2013-1-3,47,32,24,38,30,23,98,90,67,30.42,30.22,3,0,3,0.00
2013-1-4,45,33,27,37,31,26,98,92,70,30.43,30.26,2,0,2,0.01
2013-1-5,43,36,30,39,34,30,98,95,83,30.29,30.21,4,0,9,0.10
2013-1-6,43,36,32,40,36,32,99,97,87,30.32,30.23,2,0,2,0.00
2013-1-7,44,40,35,43,39,34,99,98,94,30.37,30.29,3,0,4,0.04
2013-1-8,53,42,37,46,40,36,99,94,74,30.40,30.12,2,0,3,0.00
2013-1-9,52,39,30,43,35,30,98,87,63,30.12,29.96,13,1,20,0.09
2013-1-10,34,32,30,34,31,30,98,98,96,30.26,30.06,2,0,3,0.02
2013-1-11,36,31,26,34,30,23,98,97,90,30.35,30.24,2,0,4,0.08
2013-1-12,32,25,18,28,22,16,96,89,81,30.45,30.34,3,0,4,0.00
2013-1-13,31,24,19,25,20,16,94,87,76,30.54,30.43,3,1,7,0.00
2013-1-14,38,25,16,30,22,15,96,88,67,30.65,30.54,3,0,3,0.01
2013-1-15,45,30,21,38,27,20,98,91,68,30.72,30.63,3,0,5,0.03
2013-1-16,49,33,25,38,30,24,98,90,57,30.73,30.53,2,0,3,0.02
2013-1-17,51,34,26,36,29,24,97,84,48,30.55,30.36,2,0,3,0.02
2013-1-18,52,35,26,34,28,24,95,80,41,30.42,30.31,2,0,3,0.00
2013-1-19,50,34,25,32,27,23,92,79,45,30.43,30.33,2,0,3,0.01
2013-1-20,49,34,23,31,26,21,92,77,43,30.44,30.31,2,0,3,0.00
2013-1-21,52,34,24,32,26,22,91,75,38,30.37,30.23,3,0,4,0.00
2013-1-22,51,36,26,34,29,23,90,76,44,30.27,30.02,3,0,4,0.00
2013-1-23,48,41,34,48,38,28,98,90,69,30.19,29.91,3,0,4,0.23
2013-1-24,49,43,39,47,42,39,99,97,92,30.26,30.19,3,0,4,0.01
2013-1-25,51,45,41,50,45,41,100,98,94,30.25,30.02,2,0,3,0.18
2013-1-26,45,38,31,45,36,31,99,93,77,30.18,30.03,5,0,6,0.07
2013-1-27,42,35,32,37,33,31,99,92,67,30.29,30.18,2,0,5,0.09
2013-1-28,42,36,32,40,36,32,99,96,89,30.42,30.23,3,0,4,0.18
2013-1-29,48,40,34,42,37,33,99,92,76,30.58,30.40,2,0,3,0.00
2013-1-30,45,38,33,40,35,32,98,91,79,30.64,30.53,5,1,5,0.00
2013-1-31,42,37,33,38,35,32,98,93,82,30.53,30.41,4,0,5,0.00
2013-2-1,49,36,29,40,33,28,97,90,69,30.44,30.29,2,1,3,0.00
2013-2-2,50,36,29,41,34,28,98,90,69,30.42,30.33,2,0,3,0.00
2013-2-3,50,36,26,39,32,25,98,88,63,30.41,30.28,5,0,6,0.01
2013-2-4,51,39,30,41,35,30,98,87,65,30.32,30.07,3,0,4,0.00
2013-2-5,46,38,29,43,36,28,98,93,81,30.22,30.07,3,0,6,0.01
2013-2-6,52,39,29,38,32,28,97,78,50,30.26,30.01,7,1,9,0.01
2013-2-7,45,36,32,38,33,28,98,88,52,30.12,30.01,6,0,8,0.26
2013-2-8,43,35,29,36,31,27,98,87,63,30.31,30.12,5,1,6,0.10
2013-2-9,47,36,28,36,31,27,96,83,56,30.33,30.27,4,0,5,0.00
2013-2-10,51,38,29,36,32,27,97,82,44,30.35,30.24,3,0,4,0.00
2013-2-11,41,33,26,36,30,24,97,91,80,30.52,30.34,5,1,7,0.00
2013-2-12,51,37,28,39,32,27,97,85,59,30.60,30.52,6,1,8,0.00
2013-2-13,55,41,29,42,36,28,97,83,60,30.57,30.46,3,1,5,0.00
2013-2-14,59,45,36,44,38,34,95,81,53,30.58,30.43,3,0,4,0.00
2013-2-15,64,44,31,42,36,30,97,77,40,30.47,30.27,3,0,5,0.00
2013-2-16,59,44,33,40,35,31,93,73,46,30.35,30.17,7,1,9,0.00
2013-2-17,51,38,28,34,30,25,94,74,38,30.30,30.10,3,0,4,0.00
2013-2-18,44,35,28,35,30,25,93,83,66,30.11,29.87,4,1,6,0.00
2013-2-19,40,35,30,36,32,28,97,89,73,30.05,29.71,3,0,4,0.22
2013-2-20,47,39,34,36,33,29,95,80,52,30.18,30.05,4,0,5,0.05
2013-2-21,45,38,34,37,34,31,98,85,61,30.33,30.18,4,0,5,0.02
2013-2-22,51,38,30,42,35,29,97,87,57,30.36,30.10,8,1,14,0.12
2013-2-23,43,37,30,36,32,29,97,86,60,30.50,30.21,7,1,8,0.02
2013-2-24,51,36,26,35,30,25,97,80,47,30.52,30.29,4,0,6,0.01
2013-2-25,47,39,34,40,32,27,96,77,47,30.46,30.27,4,1,9,0.05
2013-2-26,50,37,27,34,29,25,94,75,44,30.46,30.30,4,0,7,0.00
2013-2-27,56,41,28,43,33,26,94,76,40,30.42,30.33,4,1,6,0.02
2013-2-28,56,48,41,49,45,40,98,89,72,30.56,30.36,4,1,6,0.03
2013-3-1,63,49,38,49,44,37,100,85,54,30.56,30.34,4,0,5,0.00
2013-3-2,53,46,38,47,42,37,98,89,76,30.35,30.20,5,0,6,0.07
2013-3-3,54,44,32,44,40,31,98,88,55,30.22,30.10,4,1,5,0.00
2013-3-4,60,43,30,42,36,29,97,80,45,30.18,29.97,5,1,6,0.00
2013-3-5,50,40,35,41,37,34,98,89,59,29.99,29.64,5,0,6,0.06
2013-3-6,48,40,32,39,34,29,98,81,51,30.04,29.58,10,1,15,0.05
2013-3-7,49,38,26,36,31,25,95,79,51,30.07,29.98,4,1,6,0.01
2013-3-8,51,35,26,30,27,20,96,77,33,30.25,30.02,4,0,7,0.00
2013-3-9,59,40,27,36,28,20,95,68,25,30.55,30.26,4,1,7,0.00
2013-3-10,62,44,28,38,31,25,90,66,30,30.58,30.42,4,1,6,0.00
2013-3-11,63,47,33,44,37,30,93,72,45,30.47,30.24,5,1,6,0.00
2013-3-12,65,49,36,47,41,34,95,76,43,30.30,30.16,5,1,7,0.00
2013-3-13,67,50,38,46,42,36,95,74,40,30.27,30.12,3,1,4,0.00
2013-3-14,69,52,41,48,40,24,93,69,19,30.26,30.12,6,1,10,0.00
2013-3-15,64,49,37,44,38,34,92,70,39,30.28,30.16,5,1,7,0.00
2013-3-16,56,46,36,44,39,34,97,77,52,30.23,30.13,7,1,9,0.00
2013-3-17,53,41,32,38,33,30,96,74,42,30.33,30.21,5,1,6,0.00
2013-3-18,58,41,27,38,32,25,95,73,41,30.29,30.12,3,1,5,0.00
2013-3-19,62,49,40,48,41,36,94,76,43,30.14,29.84,4,0,7,0.01
2013-3-20,48,46,46,45,45,44,96,95,94,29.86,29.82,2,1,3,0.00
2013-3-21,48,40,34,33,30,25,92,71,42,30.38,30.24,5,1,7,0.00
2013-3-22,46,36,28,32,27,23,92,70,45,30.41,30.34,4,1,7,0.00
2013-3-23,28,25,24,23,22,21,91,90,82,30.41,30.24,1,0,2,0.00
2013-3-24,68,42,24,39,30,22,91,68,33,30.33,29.99,4,1,6,0.02
2013-3-25,62,47,34,44,39,32,95,75,48,30.03,29.88,6,1,8,0.14
2013-3-26,57,48,42,45,42,40,97,83,56,30.02,29.95,5,0,5,0.01
2013-3-27,60,49,38,49,44,37,97,84,56,30.01,29.91,7,1,9,0.03
2013-3-28,59,51,46,50,47,45,97,88,63,30.16,30.00,5,1,7,0.06
2013-3-29,70,54,43,51,46,42,97,77,39,30.22,30.08,5,1,6,0.00
2013-3-30,72,54,39,55,47,38,97,79,47,30.15,29.95,4,1,5,0.14
2013-3-31,58,52,49,53,50,48,97,93,80,30.06,29.99,3,0,5,0.29
2013-4-1,58,50,44,50,47,43,98,89,66,30.22,30.05,3,0,4,0.71
2013-4-2,65,53,44,51,47,43,97,81,53,30.24,30.12,5,1,7,0.00
2013-4-3,68,53,40,53,47,39,97,81,54,30.19,29.92,3,1,5,0.00
2013-4-4,63,54,46,52,48,42,95,81,54,30.00,29.79,10,1,16,0.36
2013-4-5,58,50,41,48,44,41,99,82,58,30.07,29.98,6,1,11,0.02
2013-4-6,60,50,45,49,43,37,97,79,50,30.09,29.93,13,1,20,0.10
2013-4-7,55,48,34,43,39,33,97,73,56,30.01,29.86,10,2,16,0.34
2013-4-8,51,42,34,40,36,33,98,83,56,30.32,30.01,5,1,7,0.03
2013-4-9,64,48,34,44,38,24,95,72,25,30.40,30.29,4,1,5,0.00
2013-4-10,63,49,38,52,44,36,96,87,64,30.37,30.24,7,1,11,0.03
2013-4-11,60,48,39,42,39,29,98,75,35,30.33,30.11,6,1,8,0.00
2013-4-12,68,50,32,45,36,27,97,65,25,30.16,29.91,6,1,9,0.00
2013-4-13,55,48,41,40,34,28,82,61,37,30.11,29.97,8,2,10,0.00
2013-4-14,48,41,34,37,32,27,95,72,45,30.13,29.93,6,1,7,0.04
2013-4-15,45,38,35,38,35,33,96,88,71,30.22,29.99,7,1,11,0.11
2013-4-16,52,42,36,38,35,32,95,78,48,30.42,30.23,6,1,9,0.02
2013-4-17,58,46,34,37,33,21,95,65,26,30.51,30.40,7,1,11,0.00
2013-4-18,66,48,32,44,38,30,94,69,40,30.51,30.34,5,1,8,0.00
2013-4-19,64,50,40,50,42,38,93,74,44,30.40,30.26,6,1,8,0.00
2013-4-20,68,52,37,45,39,34,96,66,33,30.37,30.19,5,1,6,0.00
2013-4-21,70,53,36,45,40,34,94,66,34,30.32,30.18,7,1,8,0.00
2013-4-22,69,54,39,48,39,25,95,63,20,30.27,30.13,6,2,10,0.00
2013-4-23,72,52,33,33,28,9,82,47,9,30.26,30.04,9,1,9,0.00
2013-4-24,80,56,33,35,28,17,82,42,11,30.15,29.94,7,1,10,0.00
2013-4-25,80,58,37,42,35,25,76,46,15,30.17,30.01,6,1,7,0.00
2013-4-26,82,62,42,48,42,37,88,54,21,30.25,30.14,4,1,7,0.00
2013-4-27,81,63,44,47,41,34,85,50,19,30.28,30.12,6,1,10,0.00
2013-4-28,74,58,41,43,39,30,84,53,25,30.26,30.11,5,1,8,0.00
2013-4-29,69,56,44,48,42,36,86,63,36,30.20,30.02,6,1,8,0.00
2013-4-30,62,48,34,36,30,14,94,56,18,30.35,30.10,8,1,10,0.00
2013-5-1,74,53,29,35,29,22,90,49,15,30.44,30.31,7,1,9,0.00
2013-5-2,83,60,37,38,31,26,68,39,13,30.39,30.15,4,1,6,0.00
2013-5-3,83,63,41,44,38,24,81,46,12,30.25,29.99,5,1,8,0.00
2013-5-4,80,63,41,44,35,26,87,44,15,30.08,29.71,9,2,15,0.00
2013-5-5,80,61,45,54,42,36,79,54,24,29.81,29.60,8,1,13,0.01
2013-5-6,73,56,44,57,49,42,97,79,43,29.95,29.80,4,0,5,0.28
2013-5-7,68,59,53,56,54,52,98,83,60,30.02,29.93,3,0,4,0.00
2013-5-8,76,61,52,56,53,48,97,78,43,30.12,30.00,8,1,11,0.07
2013-5-9,83,64,46,58,53,46,98,70,36,30.17,30.02,3,1,6,0.00
2013-5-10,87,69,51,59,54,49,94,62,32,30.19,30.05,6,1,9,0.00
2013-5-11,88,71,54,60,55,51,91,61,32,30.19,29.97,6,1,7,0.00
2013-5-12,82,67,51,56,51,44,91,59,35,30.11,29.98,7,1,9,0.00
2013-5-13,74,60,46,52,44,36,88,59,31,30.16,30.06,7,1,9,0.00
2013-5-14,73,58,43,48,44,41,92,63,32,30.16,30.01,5,1,8,0.00
2013-5-15,67,56,44,49,46,41,89,70,46,30.10,30.02,8,1,10,0.00
2013-5-16,63,54,48,52,46,41,97,75,53,30.04,29.93,7,2,13,0.05
2013-5-17,65,55,46,44,42,39,85,64,39,30.11,30.01,6,1,8,0.00
2013-5-18,64,53,44,50,44,40,90,73,52,30.32,30.12,7,1,9,0.02
2013-5-19,71,57,44,45,42,37,89,62,30,30.40,30.22,4,1,8,0.00
2013-5-20,80,60,40,50,41,28,94,57,21,30.29,29.93,5,1,7,0.00
2013-5-21,59,48,38,46,36,31,93,65,43,30.14,29.86,8,2,16,0.09
2013-5-22,54,44,33,44,36,32,96,76,44,30.15,30.06,5,1,6,0.04
2013-5-23,61,50,40,40,38,34,95,66,38,30.11,30.04,6,1,7,0.00
2013-5-24,62,50,38,41,38,35,87,65,44,30.12,30.05,6,1,8,0.00
2013-5-25,71,54,35,46,39,34,94,62,30,30.11,29.94,6,1,8,0.00
2013-5-26,66,56,50,51,46,42,95,70,45,30.07,30.01,6,1,8,0.03
2013-5-27,68,56,48,53,48,44,95,76,50,30.05,29.84,9,1,18,0.10
2013-5-28,72,59,48,52,48,43,98,73,38,29.97,29.79,5,1,8,0.00
2013-5-29,68,57,44,49,43,38,91,62,39,30.08,29.80,7,2,11,0.00
2013-5-30,68,54,40,42,40,37,87,62,33,30.23,30.08,6,1,8,0.00
2013-5-31,79,58,37,45,38,31,92,55,19,30.30,30.14,4,1,6,0.00
2013-6-1,82,64,43,46,42,39,86,51,24,30.22,29.95,6,1,7,0.00
2013-6-2,77,62,47,53,48,44,90,62,36,30.00,29.87,8,1,8,0.00
2013-6-3,85,64,44,52,46,31,93,58,16,30.03,29.88,5,1,7,0.00
2013-6-4,90,69,46,53,46,41,85,50,21,30.01,29.86,4,1,6,0.00
2013-6-5,91,71,50,53,47,42,77,47,24,30.04,29.88,5,1,6,0.00
2013-6-6,91,71,52,60,52,47,83,55,31,29.98,29.85,5,1,6,0.00
2013-6-7,89,76,55,58,54,51,91,51,30,30.06,29.92,5,1,7,0.00
2013-6-8,92,72,52,57,50,34,87,51,20,30.03,29.89,6,1,8,0.00
2013-6-9,89,70,51,53,45,40,74,45,24,29.97,29.77,7,2,9,0.00
2013-6-10,80,64,46,50,44,33,80,53,19,29.89,29.76,7,1,7,0.00
2013-6-11,66,56,47,48,43,39,80,62,40,30.13,29.90,6,2,8,0.00
2013-6-12,69,54,38,44,39,33,91,62,27,30.19,30.09,6,1,7,0.00
2013-6-13,71,58,45,44,40,37,80,55,31,30.28,30.19,6,1,9,0.00
2013-6-14,81,60,39,47,40,35,89,53,23,30.27,29.92,5,1,6,0.00
2013-6-15,82,66,44,46,42,38,80,47,25,29.99,29.85,7,1,9,0.00
2013-6-16,80,66,47,50,46,43,84,53,29,30.09,29.97,8,2,12,0.00
2013-6-17,78,62,46,50,47,42,88,61,34,30.10,29.92,9,2,12,0.00
2013-6-18,69,57,51,48,43,38,81,61,34,30.03,29.93,8,2,11,0.00
2013-6-19,65,54,45,48,43,40,92,69,45,30.15,30.01,6,1,10,0.03
2013-6-20,72,58,42,46,43,39,92,61,37,30.15,30.04,7,1,8,0.00
2013-6-21,78,61,41,48,40,35,90,52,22,30.17,30.03,6,1,7,0.00
2013-6-22,84,65,43,47,41,31,82,46,15,30.10,29.86,5,1,7,0.00
2013-6-23,80,66,58,53,49,45,74,55,36,29.86,29.62,9,1,19,0.00
2013-6-24,68,59,52,56,52,48,96,81,60,29.74,29.67,4,0,8,0.16
2013-6-25,72,61,53,58,52,46,98,77,41,29.90,29.73,7,1,10,0.04
2013-6-26,71,62,55,62,57,53,97,85,68,30.04,29.89,5,1,8,0.20
2013-6-27,88,70,53,62,58,52,97,70,38,30.13,30.04,4,1,6,0.00
2013-6-28,94,77,57,63,58,53,94,58,29,30.13,29.94,5,1,8,0.00
2013-6-29,94,77,59,61,55,47,86,51,22,30.07,29.88,4,1,7,0.00
2013-6-30,97,79,58,62,57,52,82,51,28,29.94,29.76,6,1,8,0.00
2013-7-1,96,81,62,65,61,57,86,55,31,29.94,29.85,6,1,8,0.00
2013-7-2,99,82,64,68,63,54,85,55,23,29.98,29.87,4,1,6,0.00
2013-7-3,96,80,66,68,60,52,81,55,30,29.99,29.86,8,1,11,0.00
2013-7-4,88,72,58,53,48,39,72,46,22,29.99,29.83,6,2,10,0.00
2013-7-5,82,68,50,53,47,41,83,51,28,29.95,29.79,6,1,8,0.00
2013-7-6,87,66,48,54,46,42,81,53,27,29.89,29.73,6,1,8,0.00
2013-7-7,88,72,52,57,49,42,79,49,25,29.89,29.75,5,1,8,0.00
2013-7-8,92,72,54,59,52,47,82,53,26,29.97,29.85,5,1,7,0.00
2013-7-9,97,78,56,55,50,48,75,43,19,30.01,29.86,6,1,7,0.00
2013-7-10,96,77,59,58,50,35,80,44,18,29.97,29.75,7,1,10,0.00
2013-7-11,86,73,57,57,50,43,80,47,25,29.90,29.79,6,2,9,0.00
2013-7-12,84,68,51,50,46,40,78,49,22,29.99,29.86,7,2,9,0.00
2013-7-13,87,68,48,52,47,42,81,50,27,30.04,29.89,6,1,8,0.00
2013-7-14,95,74,52,52,48,44,75,45,20,30.02,29.82,7,1,9,0.00
2013-7-15,98,75,55,53,48,38,72,43,19,29.91,29.64,7,1,8,0.00
2013-7-16,92,74,62,51,45,37,55,38,20,29.97,29.73,7,1,13,0.00
2013-7-17,93,72,50,54,42,37,62,38,16,30.08,29.97,5,1,7,0.00
2013-7-18,95,75,55,56,50,42,80,46,20,30.10,29.92,7,1,9,0.00
2013-7-19,94,75,54,55,48,44,71,42,20,30.04,29.86,6,1,7,0.00
2013-7-20,97,74,55,57,49,45,72,45,21,29.97,29.76,7,1,8,0.00
2013-7-21,98,76,53,56,46,34,71,38,14,29.88,29.73,7,1,8,0.00
2013-7-22,98,76,54,52,44,38,64,36,15,29.93,29.79,5,1,7,0.00
2013-7-23,93,75,57,51,46,41,58,38,21,29.96,29.88,4,0,6,0.00
2013-7-24,96,80,67,55,51,47,56,39,20,29.96,29.86,8,1,8,0.00
2013-7-25,102,83,63,57,52,46,64,37,18,29.97,29.82,6,1,7,0.00
2013-7-26,99,81,62,52,46,35,57,32,16,30.03,29.89,7,1,9,0.00
2013-7-27,92,74,58,50,41,34,51,33,16,30.05,29.83,8,1,9,0.00
2013-7-28,89,68,49,45,40,34,67,39,15,29.97,29.81,7,1,8,0.00
2013-7-29,86,68,52,49,44,38,63,44,24,29.99,29.84,6,1,9,0.00
2013-7-30,85,70,53,52,48,44,74,50,28,30.07,29.99,6,1,8,0.00
2013-7-31,83,70,61,54,50,40,70,52,23,30.06,29.91,8,1,8,0.00
2013-8-1,72,63,54,52,50,46,85,64,48,30.11,30.00,6,1,8,0.00
2013-8-2,83,64,44,51,46,42,91,58,24,30.13,29.96,5,1,7,0.00
2013-8-3,91,69,49,52,46,43,83,49,20,30.06,29.87,7,1,7,0.00
2013-8-4,92,74,53,52,48,45,75,44,21,29.98,29.83,6,1,7,0.00
2013-8-5,93,73,56,55,50,46,72,47,23,29.96,29.82,6,1,6,0.00
2013-8-6,94,75,57,56,51,46,74,46,20,29.94,29.80,6,1,8,0.00
2013-8-7,83,68,58,66,57,51,97,73,37,30.00,29.88,4,1,6,0.24
2013-8-8,82,64,52,60,54,50,97,74,41,30.01,29.86,4,1,6,0.01
2013-8-9,79,64,52,61,54,48,90,71,47,29.95,29.84,6,1,9,0.00
2013-8-10,83,65,51,55,52,44,94,67,27,30.05,29.94,8,1,9,0.00
2013-8-11,83,66,48,55,51,46,94,64,33,30.08,29.91,6,1,7,0.00
2013-8-12,86,70,52,57,53,49,91,58,31,30.01,29.89,6,1,7,0.00
2013-8-13,90,72,53,57,53,47,88,56,29,30.05,29.87,6,1,7,0.00
2013-8-14,90,71,53,50,46,43,75,45,21,29.99,29.85,6,1,8,0.00
2013-8-15,89,72,52,58,51,44,77,50,31,29.96,29.84,6,1,9,0.00
2013-8-16,91,75,58,60,55,48,83,52,32,29.98,29.89,7,1,8,0.00
2013-8-17,87,73,56,56,53,50,80,52,32,30.03,29.90,6,1,8,0.00
2013-8-18,92,74,55,60,53,48,89,54,27,30.06,29.89,6,1,7,0.00
2013-8-19,93,74,55,54,51,48,79,48,23,30.05,29.88,5,1,8,0.00
2013-8-20,92,73,55,57,50,39,81,49,26,29.99,29.81,5,1,7,0.00
2013-8-21,95,77,60,55,48,42,59,38,23,29.91,29.75,5,1,10,0.00
2013-8-22,80,64,54,61,54,50,91,71,42,29.95,29.83,4,1,8,0.11
2013-8-23,84,66,48,56,51,46,96,64,34,29.96,29.80,6,1,8,0.00
2013-8-24,82,67,49,54,50,46,89,59,34,29.89,29.76,7,1,9,0.00
2013-8-25,72,63,58,64,58,52,97,82,63,29.91,29.85,5,1,6,0.70
2013-8-26,83,66,54,58,52,43,95,68,25,29.97,29.91,5,1,11,0.00
2013-8-27,85,67,48,54,51,46,94,62,32,29.96,29.75,5,1,8,0.00
2013-8-28,86,69,51,57,53,48,90,61,31,29.88,29.78,6,1,10,0.00
2013-8-29,86,70,56,58,55,53,88,64,33,30.07,29.88,9,1,11,0.00
2013-8-30,86,70,54,60,56,52,93,65,35,30.12,29.93,4,1,7,0.00
2013-8-31,91,72,54,60,56,51,93,60,31,29.99,29.76,6,1,9,0.00
2013-9-1,84,68,53,55,52,49,89,60,34,29.90,29.75,8,2,9,0.00
2013-9-2,83,65,52,56,52,49,91,65,35,29.92,29.82,8,1,10,0.00
2013-9-3,80,66,55,53,51,48,81,59,36,29.99,29.89,6,1,9,0.00
2013-9-4,75,63,49,55,52,46,91,68,48,30.04,29.95,6,1,8,0.00
2013-9-5,73,62,57,57,54,51,96,75,49,30.14,29.97,6,1,9,0.13
2013-9-6,78,63,50,56,50,41,97,67,27,30.22,30.03,4,1,7,0.01
2013-9-7,88,67,48,54,48,45,92,56,24,30.07,29.86,4,1,6,0.00
2013-9-8,89,70,51,52,49,44,84,52,21,30.01,29.85,6,1,6,0.00
2013-9-9,92,69,52,57,49,32,89,55,13,29.98,29.78,5,1,6,0.00
2013-9-10,98,73,53,54,47,40,82,46,15,29.87,29.70,4,1,6,0.00
2013-9-11,96,76,56,48,45,41,60,37,17,29.90,29.78,7,1,8,0.00
2013-9-12,93,76,57,54,51,46,76,44,21,29.94,29.80,6,1,8,0.00
2013-9-13,92,73,56,55,50,45,73,46,25,29.91,29.71,5,1,6,0.00
2013-9-14,93,73,54,54,49,46,74,47,24,29.79,29.60,6,1,8,0.00
2013-9-15,79,66,52,55,49,45,78,57,32,29.89,29.68,6,1,10,0.00
2013-9-16,76,62,47,53,49,44,92,65,42,29.97,29.82,6,1,7,0.00
2013-9-17,61,57,51,56,52,49,97,84,65,30.07,29.82,3,0,6,0.17
2013-9-18,72,58,46,50,48,44,98,73,39,30.13,29.96,3,0,5,0.00
2013-9-19,81,60,41,47,42,31,94,59,19,30.02,29.79,4,1,6,0.00
2013-9-20,77,56,45,55,44,34,97,70,23,29.82,29.63,8,1,15,0.17
2013-9-21,59,52,46,55,50,46,98,92,73,29.91,29.71,5,0,5,0.18
2013-9-22,63,54,44,52,48,43,98,80,57,29.98,29.91,7,1,14,0.03
2013-9-23,69,57,47,56,50,46,97,79,49,30.03,29.98,7,1,10,0.00
2013-9-24,62,54,47,51,48,43,96,81,61,30.02,29.92,4,1,6,0.09
2013-9-25,56,47,42,47,43,39,97,89,57,30.09,29.94,5,0,7,0.10
2013-9-26,59,49,42,46,42,38,97,79,50,30.23,30.09,4,0,9,0.01
2013-9-27,67,51,34,44,38,30,96,67,25,30.27,30.13,4,0,6,0.00
2013-9-28,73,60,47,53,46,41,82,61,38,30.13,29.74,11,2,23,0.00
2013-9-29,63,58,51,54,52,48,98,82,59,29.84,29.71,12,2,22,0.96
2013-9-30,61,54,47,54,46,38,97,76,47,30.08,29.73,5,1,12,0.18
2013-10-1,60,49,38,46,41,37,97,78,50,30.21,30.07,6,1,9,0.00
2013-10-2,56,44,33,42,38,32,97,79,41,30.24,30.14,5,1,8,0.00
2013-10-3,58,47,38,43,39,34,97,75,41,30.41,30.24,5,1,6,0.02
2013-10-4,68,48,32,42,36,30,96,69,31,30.47,30.32,4,1,5,0.00
2013-10-5,75,53,34,42,36,30,90,59,21,30.37,30.18,4,0,5,0.00
2013-10-6,79,56,39,44,35,20,88,55,12,30.22,30.04,5,1,10,0.00
2013-10-7,61,51,43,48,40,34,83,66,51,30.19,30.05,7,1,8,0.00
2013-10-8,57,48,38,45,40,36,94,76,50,30.20,30.00,4,1,7,0.02
2013-10-9,59,48,40,43,39,35,97,75,43,30.00,29.92,4,1,6,0.01
2013-10-10,63,47,35,43,38,34,96,75,37,30.11,29.98,5,0,6,0.00
2013-10-11,61,46,33,45,39,31,96,78,48,30.18,30.07,5,1,6,0.00
2013-10-12,57,45,37,46,42,35,96,88,65,30.16,30.06,3,0,7,0.04
2013-10-13,59,46,38,44,40,37,96,81,55,30.28,30.16,3,0,5,0.00
2013-10-14,65,47,33,44,38,32,97,75,39,30.35,30.21,4,0,4,0.00
2013-10-15,70,48,32,39,34,30,94,65,26,30.31,30.12,3,0,4,0.00
2013-10-16,71,50,34,37,34,30,85,59,26,30.20,30.11,3,0,4,0.00
2013-10-17,70,52,36,43,38,33,88,64,34,30.24,30.09,3,0,5,0.00
2013-10-18,73,53,37,45,40,35,93,66,31,30.20,30.05,3,0,4,0.00
2013-10-19,75,56,39,45,41,36,88,61,33,30.19,30.08,3,0,5,0.00
2013-10-20,74,54,38,46,40,35,87,65,32,30.16,30.01,4,0,4,0.00
2013-10-21,76,55,39,45,40,36,89,63,30,30.11,29.97,4,0,5,0.00
2013-10-22,76,57,41,45,40,36,82,58,31,30.09,29.95,4,0,6,0.00
2013-10-23,75,56,40,44,40,36,85,58,30,30.05,29.93,3,0,5,0.00
2013-10-24,73,54,39,43,38,34,82,58,30,30.12,29.99,4,0,6,0.00
2013-10-25,73,54,38,42,38,33,83,59,31,30.25,30.12,3,0,5,0.00
2013-10-26,72,53,38,42,37,33,82,58,28,30.30,30.12,5,0,7,0.00
2013-10-27,58,46,36,45,38,33,95,74,46,30.12,29.81,8,1,13,0.08
2013-10-28,53,46,38,44,42,36,97,86,67,29.89,29.74,2,0,4,0.00
2013-10-29,58,44,34,42,38,33,96,81,53,30.10,29.90,4,0,4,0.00
2013-10-30,60,47,34,43,39,33,96,77,49,30.26,30.10,3,0,5,0.00
2013-10-31,66,49,37,45,40,34,91,72,39,30.34,30.21,3,0,4,0.00
2013-11-1,68,49,36,45,40,35,96,75,41,30.29,30.06,2,0,3,0.00
2013-11-2,52,44,36,48,41,35,97,89,70,30.25,29.96,11,1,13,0.19
2013-11-3,48,39,33,40,36,32,98,88,60,30.29,30.22,4,0,5,0.02
2013-11-4,50,42,34,40,37,33,97,84,63,30.31,30.23,2,0,3,0.01
2013-11-5,54,46,37,50,44,35,97,93,85,30.35,30.27,1,0,2,0.16
2013-11-6,59,50,46,51,48,45,97,91,74,30.36,30.18,3,0,4,0.00
2013-11-7,60,51,44,50,47,42,98,86,60,30.20,30.07,12,1,12,0.03
2013-11-8,52,43,32,43,40,31,97,89,70,30.24,30.12,3,0,6,0.00
2013-11-9,54,42,32,44,38,31,97,86,65,30.18,30.08,4,0,5,0.00
2013-11-10,58,45,36,47,41,35,98,86,64,30.16,30.06,2,0,3,0.01
2013-11-11,58,46,37,44,40,36,95,82,55,30.19,30.05,3,0,4,0.00
2013-11-12,54,49,43,51,47,39,97,91,72,30.42,30.15,3,0,5,0.05
2013-11-13,60,51,40,53,48,38,98,91,69,30.44,30.26,3,0,4,0.04
2013-11-14,51,42,34,45,39,33,97,89,74,30.27,30.12,4,0,6,0.00
2013-11-15,50,40,32,39,35,31,97,82,56,30.14,29.87,4,0,5,0.01
2013-11-16,53,45,37,42,38,33,89,76,61,30.01,29.82,6,1,8,0.00
2013-11-17,53,41,31,37,34,30,94,77,52,30.15,30.02,2,0,3,0.00
2013-11-18,51,43,35,42,38,32,92,82,69,30.13,29.94,4,0,11,0.00
2013-11-19,58,50,44,54,47,41,98,90,69,29.95,29.83,4,0,7,0.21
2013-11-20,48,42,35,47,42,34,98,97,94,30.21,29.88,3,1,5,0.28
2013-11-21,45,34,26,38,32,25,98,91,66,30.52,30.21,3,0,5,0.00
2013-11-22,51,32,22,33,26,20,96,79,42,30.56,30.38,2,0,4,0.00
2013-11-23,58,37,26,33,27,22,88,69,32,30.39,30.18,3,0,4,0.00
2013-11-24,55,37,27,31,26,22,83,67,33,30.36,30.23,3,0,5,0.00
2013-11-25,53,37,27,32,27,23,86,70,41,30.42,30.34,4,0,4,0.00
2013-11-26,51,38,29,36,31,26,88,75,53,30.37,30.13,2,0,2,0.00
2013-11-27,50,39,33,38,34,30,89,81,58,30.13,29.96,2,0,3,0.00
2013-11-28,56,41,32,39,34,30,93,79,52,30.26,30.05,3,0,4,0.00
2013-11-29,53,40,30,40,35,29,95,82,59,30.41,30.26,2,0,4,0.00
2013-11-30,56,43,33,42,37,32,95,81,54,30.47,30.36,3,0,4,0.00
2013-12-1,58,44,36,48,40,34,96,87,67,30.49,30.25,2,0,3,0.00
2013-12-2,50,43,34,48,41,32,97,91,76,30.25,29.97,6,1,14,0.21
2013-12-3,39,32,28,34,29,27,97,92,72,30.17,30.08,4,0,4,0.01
2013-12-4,35,26,18,27,20,15,96,80,46,30.31,30.17,2,0,4,0.00
2013-12-5,35,22,13,21,16,11,92,79,47,30.34,30.22,2,0,4,0.00
2013-12-6,41,30,24,32,26,19,97,86,67,30.23,29.89,7,0,8,0.02
2013-12-7,30,24,13,29,22,11,96,92,89,30.41,29.94,0,0,1,0.00
2013-12-8,28,17,10,23,14,7,92,88,79,30.66,30.41,1,0,1,0.00
2013-12-9,34,19,9,28,16,7,94,89,73,30.71,30.61,2,0,2,0.10
2013-12-10,36,25,17,31,23,15,97,92,82,30.64,30.48,2,0,2,0.03
2013-12-11,40,29,21,36,27,19,97,93,79,30.50,30.36,2,0,2,0.11
2013-12-12,39,31,24,35,29,22,97,94,82,30.38,30.27,2,0,3,0.05
2013-12-13,50,38,30,41,35,29,98,90,68,30.51,30.36,3,0,4,0.01
2013-12-14,47,34,28,38,31,27,97,92,71,30.57,30.48,2,0,3,0.00
2013-12-15,41,31,25,34,28,24,96,91,73,30.59,30.50,2,0,2,0.01
2013-12-16,46,33,25,34,29,24,95,84,58,30.55,30.36,1,0,2,0.00
2013-12-17,46,34,28,35,30,26,96,88,65,30.36,30.23,2,0,3,0.00
2013-12-18,40,32,26,34,30,24,96,91,80,30.25,30.05,2,0,3,0.01
2013-12-19,41,32,25,34,26,22,95,81,52,30.29,30.10,4,0,5,0.00
2013-12-20,41,32,26,33,27,23,92,81,59,30.29,30.15,3,0,5,0.01
2013-12-21,50,37,30,42,34,29,97,91,74,30.40,30.17,2,0,4,0.00
2013-12-22,54,40,33,44,38,32,97,90,69,30.48,30.38,2,0,3,0.00
2013-12-23,49,39,31,42,36,30,97,90,71,30.56,30.47,1,0,3,0.00
2013-12-24,48,38,30,42,35,29,97,90,79,30.59,30.46,3,0,4,0.00
2013-12-25,48,34,26,38,31,25,97,87,65,30.53,30.41,2,0,3,0.01
2013-12-26,47,34,26,34,29,24,94,81,53,30.49,30.33,2,0,2,0.00
2013-12-27,37,31,27,33,29,26,96,90,82,30.41,30.29,2,0,3,0.00
2013-12-28,44,31,24,34,28,23,96,88,68,30.53,30.41,2,0,3,0.00
2013-12-29,47,33,24,31,26,22,95,79,47,30.49,30.33,2,0,3,0.01
2013-12-30,48,36,28,32,29,25,88,77,53,30.36,30.28,2,0,3,0.00
2013-12-31,51,38,31,35,30,27,89,74,49,30.41,30.31,2,0,4,0.00
2014-1-1,50,37,28,34,30,25,91,78,55,30.42,30.31,2,0,3,0.00
2014-1-2,53,38,30,38,33,28,96,83,55,30.36,30.22,3,0,4,0.00